�������l�o���
Date,Time,MP-1(��Sv/h),MP-2(��Sv/h),MP-3(��Sv/h),MP-4(��Sv/h),MP-5(��Sv/h),MP-6(��Sv/h),MP-7(��Sv/h),MP-8(��Sv/h),����,����(m/s),���J
2022/07/01,00:00,0.599,0.872,0.554,1.056,0.751,0.349,0.604,0.568,�쐼,2.3,��
2022/07/01,00:10,0.599,0.872,0.552,1.057,0.753,0.349,0.604,0.568,�쐼,2.3,��
2022/07/01,00:20,0.597,0.875,0.551,1.057,0.753,0.349,0.604,0.567,�쐼,2.6,��
2022/07/01,00:30,0.596,0.873,0.552,1.058,0.751,0.348,0.604,0.567,��쐼,2.8,��
2022/07/01,00:40,0.600,0.874,0.553,1.058,0.752,0.348,0.604,0.567,��쐼,2.0,��
2022/07/01,00:50,0.597,0.874,0.553,1.055,0.752,0.349,0.603,0.566,�쐼,2.0,��
2022/07/01,01:00,0.599,0.876,0.552,1.055,0.753,0.349,0.603,0.568,�쐼,2.5,��
2022/07/01,01:10,0.600,0.875,0.553,1.056,0.752,0.350,0.603,0.569,��쐼,1.7,��
2022/07/01,01:20,0.599,0.875,0.552,1.058,0.751,0.349,0.606,0.569,��쐼,2.0,��
2022/07/01,01:30,0.598,0.873,0.553,1.055,0.752,0.349,0.603,0.567,�쐼,2.0,��
2022/07/01,01:40,0.600,0.874,0.554,1.057,0.751,0.349,0.605,0.568,�쐼,1.4,��
2022/07/01,01:50,0.600,0.874,0.553,1.056,0.751,0.348,0.605,0.568,�쐼,1.4,��
2022/07/01,02:00,0.599,0.873,0.552,1.056,0.752,0.349,0.604,0.569,�쐼,1.5,��
2022/07/01,02:10,0.598,0.875,0.552,1.057,0.752,0.348,0.604,0.567,�쐼,1.7,��
2022/07/01,02:20,0.598,0.875,0.553,1.059,0.751,0.349,0.604,0.570,�쐼,1.4,��
2022/07/01,02:30,0.597,0.874,0.552,1.058,0.751,0.350,0.605,0.568,���쐼,1.1,��
2022/07/01,02:40,0.597,0.873,0.554,1.058,0.751,0.349,0.604,0.567,��,2.3,��
2022/07/01,02:50,0.598,0.874,0.552,1.057,0.750,0.348,0.603,0.567,��,2.5,��
2022/07/01,03:00,0.598,0.874,0.552,1.058,0.753,0.350,0.604,0.567,��,2.6,��
2022/07/01,03:10,0.597,0.874,0.552,1.055,0.752,0.349,0.604,0.568,��,3.0,��
2022/07/01,03:20,0.598,0.874,0.553,1.058,0.752,0.348,0.604,0.567,���쐼,3.8,��
2022/07/01,03:30,0.598,0.874,0.554,1.058,0.751,0.348,0.604,0.566,���쐼,4.4,��
2022/07/01,03:40,0.599,0.873,0.553,1.055,0.751,0.349,0.604,0.570,���쐼,2.8,��
2022/07/01,03:50,0.599,0.873,0.552,1.057,0.752,0.348,0.605,0.569,���쐼,4.2,��
2022/07/01,04:00,0.597,0.874,0.554,1.057,0.751,0.348,0.603,0.568,���쐼,3.4,��
2022/07/01,04:10,0.597,0.875,0.553,1.056,0.753,0.349,0.604,0.567,�쐼,2.9,��
2022/07/01,04:20,0.599,0.874,0.554,1.057,0.752,0.348,0.603,0.568,�k��,1.5,��
2022/07/01,04:30,0.598,0.873,0.552,1.056,0.751,0.349,0.604,0.568,�k��,1.4,��
2022/07/01,04:40,0.597,0.874,0.552,1.057,0.750,0.350,0.602,0.568,�k�k��,0.9,��
2022/07/01,04:50,0.599,0.874,0.553,1.057,0.751,0.348,0.603,0.568,-,CALM,��
2022/07/01,05:00,0.598,0.873,0.553,1.056,0.751,0.349,0.604,0.567,�쐼,1.2,��
2022/07/01,05:10,0.598,0.874,0.552,1.058,0.751,0.349,0.605,0.568,�쐼,2.3,��
2022/07/01,05:20,0.598,0.876,0.553,1.056,0.751,0.349,0.603,0.568,-,CALM,��
2022/07/01,05:30,0.598,0.873,0.551,1.058,0.753,0.350,0.605,0.568,��,1.1,��
2022/07/01,05:40,0.598,0.874,0.552,1.059,0.752,0.349,0.604,0.567,�쓌,0.9,��
2022/07/01,05:50,0.599,0.872,0.552,1.056,0.751,0.349,0.604,0.570,��,0.6,��
2022/07/01,06:00,0.597,0.875,0.553,1.057,0.752,0.350,0.605,0.568,��쓌,0.9,��
2022/07/01,06:10,0.597,0.874,0.551,1.056,0.750,0.347,0.605,0.567,��쓌,0.6,��
2022/07/01,06:20,0.598,0.876,0.552,1.057,0.750,0.349,0.605,0.569,���k��,0.6,��
2022/07/01,06:30,0.597,0.873,0.552,1.058,0.750,0.350,0.605,0.568,�k�k��,0.8,��
2022/07/01,06:40,0.599,0.871,0.551,1.058,0.752,0.349,0.605,0.569,�k��,1.5,��
2022/07/01,06:50,0.600,0.872,0.552,1.055,0.749,0.348,0.605,0.567,�k�k��,1.4,��
2022/07/01,07:00,0.597,0.874,0.551,1.056,0.750,0.349,0.604,0.569,�k,1.5,��
2022/07/01,07:10,0.597,0.873,0.552,1.055,0.751,0.348,0.605,0.566,�k,1.4,��
2022/07/01,07:20,0.598,0.873,0.550,1.056,0.750,0.348,0.607,0.568,�k��,1.5,��
2022/07/01,07:30,0.598,0.874,0.551,1.057,0.751,0.348,0.605,0.569,�k�k��,3.0,��
2022/07/01,07:40,0.598,0.874,0.552,1.053,0.750,0.347,0.605,0.569,�k��,5.2,��
2022/07/01,07:50,0.598,0.869,0.552,1.055,0.749,0.349,0.606,0.570,�k��,6.8,��
2022/07/01,08:00,0.599,0.872,0.552,1.059,0.750,0.349,0.606,0.568,���k��,5.1,��
2022/07/01,08:10,0.599,0.871,0.550,1.057,0.750,0.349,0.605,0.568,�k��,4.6,��
2022/07/01,08:20,0.597,0.871,0.550,1.058,0.751,0.349,0.606,0.566,�k��,2.5,��
2022/07/01,08:30,0.599,0.871,0.553,1.057,0.752,0.349,0.607,0.567,�k�k��,1.9,��
2022/07/01,08:40,0.599,0.872,0.553,1.057,0.752,0.348,0.606,0.567,�k�k��,3.2,��
2022/07/01,08:50,0.598,0.872,0.551,1.060,0.752,0.348,0.607,0.568,�k��,3.3,��
2022/07/01,09:00,0.600,0.872,0.552,1.055,0.753,0.348,0.607,0.566,�k�k��,3.4,��
2022/07/01,09:10,0.598,0.877,0.551,1.057,0.754,0.348,0.605,0.567,�k��,3.5,��
2022/07/01,09:20,0.600,0.875,0.554,1.059,0.753,0.349,0.606,0.567,�k��,2.6,��
2022/07/01,09:30,0.600,0.876,0.552,1.058,0.755,0.348,0.605,0.568,�k��,3.1,��
2022/07/01,09:40,0.598,0.874,0.551,1.058,0.754,0.349,0.606,0.568,�k��,3.3,��
2022/07/01,09:50,0.599,0.875,0.553,1.058,0.755,0.347,0.604,0.567,�k��,3.6,��
2022/07/01,10:00,0.601,0.876,0.552,1.060,0.755,0.350,0.604,0.568,�k��,3.6,��
2022/07/01,10:10,0.601,0.877,0.554,1.058,0.757,0.349,0.605,0.569,�k��,4.3,��
2022/07/01,10:20,0.598,0.875,0.553,1.057,0.754,0.350,0.605,0.567,���k��,3.4,��
2022/07/01,10:30,0.601,0.878,0.553,1.060,0.756,0.350,0.603,0.567,��,3.7,��
2022/07/01,10:40,0.600,0.876,0.554,1.059,0.756,0.350,0.603,0.567,��,4.1,��
2022/07/01,10:50,0.601,0.874,0.554,1.060,0.756,0.348,0.604,0.569,���쓌,3.9,��
2022/07/01,11:00,0.600,0.875,0.554,1.060,0.758,0.349,0.603,0.569,���쓌,3.2,��
2022/07/01,11:10,0.600,0.876,0.553,1.057,0.755,0.350,0.604,0.570,�쓌,3.5,��
2022/07/01,11:20,0.602,0.875,0.552,1.056,0.758,0.350,0.606,0.570,�쓌,2.8,��
2022/07/01,11:30,0.602,0.878,0.553,1.056,0.756,0.350,0.605,0.570,���쓌,3.0,��
2022/07/01,11:40,0.600,0.878,0.555,1.057,0.756,0.350,0.605,0.569,���쓌,3.2,��
2022/07/01,11:50,0.601,0.878,0.552,1.058,0.759,0.350,0.605,0.570,��,3.1,��
2022/07/01,12:00,0.601,0.878,0.552,1.060,0.758,0.351,0.606,0.571,���쓌,3.4,��
2022/07/01,12:10,0.601,0.880,0.554,1.059,0.757,0.349,0.605,0.570,��,2.8,��
2022/07/01,12:20,0.602,0.881,0.554,1.058,0.758,0.348,0.604,0.571,���쓌,3.1,��
2022/07/01,12:30,0.603,0.878,0.556,1.060,0.759,0.350,0.604,0.571,���쓌,2.3,��
2022/07/01,12:40,0.601,0.879,0.557,1.060,0.757,0.351,0.606,0.569,�쓌,2.0,��
2022/07/01,12:50,0.603,0.880,0.556,1.061,0.758,0.351,0.606,0.571,�쓌,2.6,��
2022/07/01,13:00,0.604,0.879,0.558,1.060,0.758,0.350,0.607,0.571,��쓌,2.8,��
2022/07/01,13:10,0.603,0.880,0.558,1.060,0.758,0.351,0.608,0.571,���쓌,2.0,��
2022/07/01,13:20,0.604,0.882,0.557,1.059,0.759,0.350,0.607,0.571,�쓌,1.4,��
2022/07/01,13:30,0.604,0.879,0.556,1.060,0.757,0.351,0.607,0.571,�쓌,1.7,��
2022/07/01,13:40,0.605,0.879,0.558,1.060,0.758,0.349,0.608,0.569,���쓌,2.5,��
2022/07/01,13:50,0.605,0.882,0.556,1.060,0.761,0.350,0.609,0.570,���쓌,2.6,��
2022/07/01,14:00,0.606,0.881,0.557,1.062,0.759,0.349,0.607,0.571,���쓌,2.6,��
2022/07/01,14:10,0.605,0.880,0.558,1.062,0.763,0.350,0.608,0.570,��,3.3,��
2022/07/01,14:20,0.605,0.881,0.559,1.060,0.760,0.350,0.608,0.571,���쓌,3.2,��
2022/07/01,14:30,0.605,0.880,0.556,1.059,0.761,0.349,0.606,0.570,���쓌,2.6,��
2022/07/01,14:40,0.603,0.878,0.557,1.061,0.762,0.349,0.607,0.572,���쓌,2.3,��
2022/07/01,14:50,0.602,0.881,0.557,1.062,0.762,0.348,0.606,0.571,���쓌,2.0,��
2022/07/01,15:00,0.604,0.881,0.558,1.061,0.762,0.349,0.609,0.571,�쓌,1.9,��
2022/07/01,15:10,0.604,0.880,0.553,1.066,0.759,0.347,0.607,0.570,�쓌,3.2,��
2022/07/01,15:20,0.603,0.883,0.557,1.063,0.759,0.349,0.606,0.568,�쓌,2.2,��
2022/07/01,15:30,0.605,0.881,0.555,1.061,0.761,0.348,0.606,0.568,�쓌,2.0,��
2022/07/01,15:40,0.603,0.880,0.556,1.065,0.759,0.349,0.606,0.567,��쓌,3.0,��
2022/07/01,15:50,0.602,0.880,0.557,1.066,0.759,0.349,0.605,0.567,��,3.3,��
2022/07/01,16:00,0.604,0.881,0.556,1.064,0.759,0.349,0.607,0.567,��,3.0,��
2022/07/01,16:10,0.604,0.881,0.556,1.065,0.759,0.350,0.607,0.569,��,3.3,��
2022/07/01,16:20,0.603,0.882,0.556,1.066,0.759,0.349,0.607,0.569,��쓌,3.0,��
2022/07/01,16:30,0.603,0.881,0.558,1.066,0.758,0.351,0.607,0.567,��쓌,2.6,��
2022/07/01,16:40,0.604,0.882,0.555,1.066,0.760,0.349,0.608,0.570,��쓌,2.9,��
2022/07/01,16:50,0.604,0.879,0.558,1.067,0.758,0.349,0.608,0.567,��쓌,2.8,��
2022/07/01,17:00,0.603,0.880,0.557,1.067,0.759,0.350,0.607,0.569,��쓌,2.8,��
2022/07/01,17:10,0.602,0.880,0.557,1.065,0.760,0.351,0.606,0.568,��쓌,2.5,��
2022/07/01,17:20,0.602,0.880,0.556,1.065,0.761,0.351,0.606,0.568,��쓌,2.0,��
2022/07/01,17:30,0.603,0.882,0.556,1.064,0.759,0.350,0.604,0.569,�쓌,1.7,��
2022/07/01,17:40,0.604,0.883,0.555,1.065,0.760,0.349,0.605,0.569,�쓌,1.4,��
2022/07/01,17:50,0.603,0.883,0.558,1.064,0.760,0.351,0.605,0.569,��쓌,2.6,��
2022/07/01,18:00,0.603,0.882,0.556,1.066,0.759,0.350,0.606,0.569,��쓌,3.1,��
2022/07/01,18:10,0.602,0.881,0.557,1.065,0.758,0.349,0.607,0.569,��,3.1,��
2022/07/01,18:20,0.603,0.882,0.556,1.062,0.759,0.348,0.607,0.567,��,3.6,��
2022/07/01,18:30,0.601,0.881,0.556,1.061,0.759,0.348,0.605,0.570,��,3.9,��
2022/07/01,18:40,0.602,0.879,0.555,1.065,0.761,0.349,0.605,0.569,��쐼,3.7,��
2022/07/01,18:50,0.603,0.880,0.554,1.063,0.758,0.349,0.605,0.569,��,3.6,��
2022/07/01,19:00,0.603,0.881,0.556,1.063,0.759,0.349,0.606,0.569,��,3.7,��
2022/07/01,19:10,0.603,0.882,0.558,1.062,0.760,0.347,0.607,0.568,��,4.2,��
2022/07/01,19:20,0.601,0.882,0.556,1.064,0.761,0.348,0.606,0.569,��,4.6,��
2022/07/01,19:30,0.602,0.881,0.554,1.065,0.759,0.348,0.606,0.570,��쐼,4.6,��
2022/07/01,19:40,0.601,0.882,0.554,1.065,0.757,0.348,0.606,0.570,��,4.0,��
2022/07/01,19:50,0.602,0.882,0.555,1.064,0.759,0.349,0.606,0.570,��,4.2,��
2022/07/01,20:00,0.600,0.881,0.556,1.063,0.758,0.349,0.607,0.569,��,3.7,��
2022/07/01,20:10,0.602,0.878,0.556,1.064,0.762,0.349,0.606,0.570,��쐼,2.8,��
2022/07/01,20:20,0.601,0.881,0.555,1.062,0.762,0.350,0.605,0.568,��,3.1,��
2022/07/01,20:30,0.604,0.881,0.556,1.064,0.760,0.348,0.605,0.570,��,3.3,��
2022/07/01,20:40,0.602,0.884,0.555,1.062,0.759,0.348,0.604,0.569,��,2.6,��
2022/07/01,20:50,0.602,0.883,0.557,1.064,0.760,0.349,0.606,0.569,��쐼,3.2,��
2022/07/01,21:00,0.604,0.881,0.556,1.066,0.761,0.349,0.606,0.568,��,3.1,��
2022/07/01,21:10,0.605,0.881,0.556,1.067,0.760,0.349,0.606,0.570,��,3.6,��
2022/07/01,21:20,0.603,0.883,0.556,1.066,0.760,0.348,0.605,0.570,��,3.5,��
2022/07/01,21:30,0.601,0.882,0.557,1.066,0.761,0.350,0.607,0.570,��,3.0,��
2022/07/01,21:40,0.603,0.882,0.558,1.066,0.761,0.350,0.606,0.569,��,3.3,��
2022/07/01,21:50,0.605,0.883,0.557,1.066,0.763,0.349,0.605,0.570,��,3.3,��
2022/07/01,22:00,0.604,0.881,0.556,1.067,0.761,0.351,0.606,0.570,��,3.5,��
2022/07/01,22:10,0.604,0.882,0.557,1.066,0.761,0.350,0.606,0.570,��,2.5,��
2022/07/01,22:20,0.604,0.884,0.557,1.065,0.761,0.350,0.607,0.571,��,1.7,��
2022/07/01,22:30,0.603,0.882,0.557,1.067,0.760,0.349,0.606,0.571,��쐼,2.5,��
2022/07/01,22:40,0.603,0.884,0.556,1.065,0.760,0.350,0.607,0.569,��쐼,2.0,��
2022/07/01,22:50,0.604,0.884,0.557,1.067,0.759,0.350,0.607,0.570,��쐼,1.7,��
2022/07/01,23:00,0.604,0.881,0.558,1.066,0.760,0.352,0.607,0.570,�쐼,1.4,��
2022/07/01,23:10,0.604,0.883,0.556,1.067,0.760,0.351,0.606,0.570,�쐼,2.8,��
2022/07/01,23:20,0.601,0.882,0.556,1.066,0.760,0.349,0.606,0.570,�쐼,1.9,��
2022/07/01,23:30,0.603,0.884,0.556,1.066,0.760,0.351,0.606,0.569,�쐼,2.0,��
2022/07/01,23:40,0.601,0.881,0.558,1.067,0.760,0.351,0.607,0.570,�쐼,1.9,��
2022/07/01,23:50,0.602,0.883,0.557,1.066,0.760,0.352,0.605,0.571,�쐼,2.2,��
